Terug naar catalogus

STARLINK-3672

ActiefCommunicatieVLEO
NORAD 51974·PAYLOAD·🇺🇸 United States

Gelanceerd Mar 9, 2022 vanaf Cape Canaveral Space Force Station

Loading…

Volgende Passages (komende 24 uur)

TLE

VersSource: CelesTrak SupGP

Epoch: Sep 15, 2026, 01:37 UTC

1 51974C 22025U   26258.06784722 -.00033215  00000+0 -10679-2 0  2584
2 51974  53.1572 235.8723 0001389  94.2269  31.6850 15.31723224    18

Volg STARLINK-3672 in realtime met AllMySat

Download on the App Store